GW1361 Weather Reports


time (UTC)temp
C
wind
direction
speed
KPH
gust
KPH
rain 1hr
cm
rain 24hr
cm
rain mn
cm
humidity
%
barometer
mb
20240222103630 -1 11 0.0 0.0 0.00 0.00 0.00 85 1018.6
20240222103130 -1 10 0.0 0.0 0.00 0.00 0.00 85 1018.5
20240222102629 -1 9 0.0 0.0 0.00 0.00 0.00 85 1018.4
20240222102128 -1 9 0.0 0.0 0.00 0.00 0.00 85 1018.4
20240222101627 -1 5 0.0 0.0 0.00 0.00 0.00 85 1018.3
20240222101127 -1 4 0.0 0.0 0.00 0.00 0.00 84 1018.2
20240222100625 -1 4 0.0 0.0 0.00 0.00 0.00 84 1018.2
20240222100124 -1 25 0.0 0.0 0.00 0.00 0.00 84 1018.0
20240222095624 -1 10 0.0 0.0 0.00 0.00 0.00 83 1018.2
20240222095123 -1 6 0.0 0.0 0.00 0.00 0.00 84 1018.3
20240222094622 -1 4 0.0 0.0 0.00 0.00 0.00 83 1018.2
20240222094122 -1 20 0.0 0.0 0.00 0.00 0.00 83 1018.0
20240222093622 -1 20 0.0 0.0 0.00 0.00 0.00 82 1017.9
20240222093122 -1 9 0.0 0.0 0.00 0.00 0.00 82 1017.7
20240222092621 0 9 0.0 0.0 0.00 0.00 0.00 81 1017.6
20240222092120 0 4 0.0 1.6 0.00 0.00 0.00 82 1017.6
20240222091619 -1 8 0.0 0.0 0.00 0.00 0.00 81 1017.2
20240222091119 0 22 0.0 0.0 0.00 0.00 0.00 81 1017.1
20240222090618 0 23 0.0 0.0 0.00 0.00 0.00 81 1017.5
20240222090118 0 19 0.0 0.0 0.00 0.00 0.00 82 1017.5
20240222085617 0 19 0.0 0.0 0.00 0.00 0.00 81 1017.5
20240222085115 0 5 0.0 0.0 0.00 0.00 0.00 82 1017.5
20240222084614 0 15 0.0 1.6 0.00 0.00 0.00 83 1017.3
20240222084112 0 10 0.0 0.0 0.00 0.00 0.00 85 1017.3
20240222083610 0 42 1.6 1.6 0.00 0.00 0.00 84 1017.2
20240222083108 0 9 0.0 0.0 0.00 0.00 0.00 84 1017.3
20240222082607 0 353 1.6 1.6 0.00 0.00 0.00 85 1017.3
20240222082052 0 7 0.0 0.0 0.00 0.00 0.00 85 1017.2
20240222081551 0 9 0.0 0.0 0.00 0.00 0.00 85 1017.2
20240222080511 0 10 0.0 0.0 0.00 0.00 0.00 85 1017.1
20240222080009 0 10 0.0 0.0 0.00 0.00 0.00 84 1017.2
20240222075509 0 9 0.0 0.0 0.00 0.00 0.00 85 1017.1
20240222075008 0 11 0.0 0.0 0.00 0.00 0.00 83 1017.2
20240222074507 0 11 0.0 0.0 0.00 0.00 0.00 83 1017.3
20240222074005 0 10 0.0 0.0 0.00 0.00 0.00 81 1017.3
20240222073505 0 9 0.0 0.0 0.00 0.00 0.00 81 1017.2
20240222073004 0 9 0.0 0.0 0.00 0.00 0.00 81 1017.5
20240222072502 1 11 0.0 0.0 0.00 0.00 0.00 81 1017.5
20240222072000 1 11 0.0 0.0 0.00 0.00 0.00 80 1017.6
20240222071457 1 11 0.0 0.0 0.00 0.00 0.00 80 1017.6
20240222070957 1 10 0.0 0.0 0.00 0.00 0.00 80 1017.5
20240222070454 1 359 0.0 1.6 0.00 0.00 0.00 80 1017.5
20240222065952 1 8 0.0 0.0 0.00 0.00 0.00 79 1017.6
20240222065451 1 7 0.0 0.0 0.00 0.00 0.00 80 1017.5
20240222064951 1 9 0.0 0.0 0.00 0.00 0.00 80 1017.2
20240222064450 1 10 0.0 0.0 0.00 0.00 0.00 79 1017.6
20240222063949 1 9 0.0 0.0 0.00 0.00 0.00 78 1017.2
20240222063448 1 10 0.0 0.0 0.00 0.00 0.00 78 1017.2
20240222062947 1 5 0.0 1.6 0.00 0.00 0.00 77 1017.1
20240222062445 1 5 0.0 1.6 0.00 0.00 0.00 76 1017.2
20240222061944 2 7 0.0 0.0 0.00 0.00 0.00 75 1017.3
20240222061443 2 12 0.0 0.0 0.00 0.00 0.00 74 1017.2
20240222060941 2 30 0.0 1.6 0.00 0.00 0.00 72 1017.2
20240222060440 2 25 0.0 0.0 0.00 0.00 0.00 71 1017.2
20240222055939 2 26 0.0 0.0 0.00 0.00 0.00 70 1017.2
20240222055437 2 23 0.0 0.0 0.00 0.00 0.00 69 1017.3
20240222054935 2 36 1.6 1.6 0.00 0.00 0.00 69 1017.2
20240222054434 2 15 0.0 0.0 0.00 0.00 0.00 68 1017.1
20240222053932 2 15 0.0 0.0 0.00 0.00 0.00 68 1017.2
20240222053432 2 16 0.0 0.0 0.00 0.00 0.00 67 1017.1
20240222052932 3 5 0.0 0.0 0.00 0.00 0.00 65 1017.2
20240222052431 4 23 0.0 0.0 0.00 0.00 0.00 64 1017.2
20240222051929 4 84 3.2 3.2 0.00 0.00 0.00 64 1017.1
20240222051428 3 20 0.0 0.0 0.00 0.00 0.00 62 1016.9
20240222050927 3 27 0.0 1.6 0.00 0.00 0.00 60 1016.9
20240222050425 3 30 1.6 1.6 0.00 0.00 0.00 61 1016.8
20240222045925 2 25 0.0 1.6 0.00 0.00 0.00 62 1016.6
20240222045422 2 10 0.0 0.0 0.00 0.00 0.00 60 1016.5
20240222044922 2 357 1.6 1.6 0.00 0.00 0.00 59 1016.2
20240222044420 3 20 0.0 0.0 0.00 0.00 0.00 58 1016.0
20240222043919 3 0 0.0 1.6 0.00 0.00 0.00 56 1016.0
20240222043418 3 30 1.6 1.6 0.00 0.00 0.00 55 1015.9
20240222042917 3 18 0.0 0.0 0.00 0.00 0.00 55 1016.0
20240222042417 3 11 0.0 0.0 0.00 0.00 0.00 53 1016.0
20240222041916 3 12 0.0 0.0 0.00 0.00 0.00 54 1015.8
20240222041415 3 14 0.0 0.0 0.00 0.00 0.00 55 1015.8
20240222040915 3 15 0.0 0.0 0.00 0.00 0.00 55 1015.7
20240222040414 4 14 0.0 0.0 0.00 0.00 0.00 54 1015.6
20240222035913 4 8 0.0 0.0 0.00 0.00 0.00 55 1015.6
20240222035413 4 7 0.0 0.0 0.00 0.00 0.00 55 1015.6
20240222034912 5 10 0.0 0.0 0.00 0.00 0.00 57 1015.3
20240222034412 5 6 0.0 0.0 0.00 0.00 0.00 56 1015.5
20240222033910 5 23 0.0 0.0 0.00 0.00 0.00 54 1015.3
20240222033410 6 33 1.6 1.6 0.00 0.00 0.00 53 1015.2
20240222032909 6 22 0.0 0.0 0.00 0.00 0.00 52 1015.2
20240222032409 6 39 1.6 1.6 0.00 0.00 0.00 51 1015.0
20240222031908 6 350 1.6 1.6 0.00 0.00 0.00 51 1015.1
20240222031408 6 342 1.6 1.6 0.00 0.00 0.00 49 1015.0
20240222030907 6 10 0.0 0.0 0.00 0.00 0.00 48 1014.6
20240222030405 6 14 0.0 0.0 0.00 0.00 0.00 46 1014.7
20240222025905 7 15 1.6 1.6 0.00 0.00 0.00 44 1014.5
20240222025405 7 303 1.6 1.6 0.00 0.00 0.00 41 1014.3
20240222024904 7 8 0.0 0.0 0.00 0.00 0.00 38 1014.5
20240222024404 7 28 0.0 1.6 0.00 0.00 0.00 36 1014.0
20240222023903 8 355 0.0 1.6 0.00 0.00 0.00 31 1014.0
20240222023403 8 14 1.6 1.6 0.00 0.00 0.00 30 1013.8
20240222022902 8 18 1.6 1.6 0.00 0.00 0.00 31 1013.8
20240222022402 8 17 0.0 0.0 0.00 0.00 0.00 30 1013.8
20240222021900 8 10 1.6 3.2 0.00 0.00 0.00 29 1013.7
20240222021359 9 6 1.6 1.6 0.00 0.00 0.00 29 1013.7
20240222020858 9 64 0.0 1.6 0.00 0.00 0.00 29 1013.6
20240222020357 9 9 1.6 1.6 0.00 0.00 0.00 29 1013.6
20240222015855 9 8 3.2 3.2 0.00 0.00 0.00 29 1013.3
20240222015354 9 288 8.0 11.3 0.00 0.00 0.00 28 1013.2
20240222014852 10 6 1.6 3.2 0.00 0.00 0.00 28 1013.2
20240222014352 9 293 4.8 8.0 0.00 0.00 0.00 28 1013.0
20240222013851 10 331 4.8 4.8 0.00 0.00 0.00 28 1012.9
20240222013350 10 32 3.2 3.2 0.00 0.00 0.00 28 1013.1
20240222012849 10 321 4.8 4.8 0.00 0.00 0.00 27 1012.9
20240222012349 10 323 3.2 3.2 0.00 0.00 0.00 27 1013.1
20240222011848 10 15 3.2 3.2 0.00 0.00 0.00 26 1012.7
20240222011346 10 334 3.2 4.8 0.00 0.00 0.00 25 1012.9
20240222010845 10 277 4.8 4.8 0.00 0.00 0.00 25 1012.7
20240222010345 10 331 4.8 4.8 0.00 0.00 0.00 24 1012.7
20240222005844 10 358 3.2 3.2 0.00 0.00 0.00 24 1012.9
20240222005344 11 330 1.6 3.2 0.00 0.00 0.00 24 1012.5
20240222004843 11 3 1.6 1.6 0.00 0.00 0.00 22 1012.5
20240222004343 11 8 1.6 3.2 0.00 0.00 0.00 22 1012.3
20240222003842 11 11 1.6 1.6 0.00 0.00 0.00 21 1012.3
20240222003342 11 3 1.6 3.2 0.00 0.00 0.00 20 1012.0
20240222002842 12 4 1.6 1.6 0.00 0.00 0.00 20 1011.8
20240222002341 12 339 3.2 4.8 0.00 0.00 0.00 19 1011.6
20240222001839 12 346 3.2 4.8 0.00 0.00 0.00 18 1011.7
20240222001339 13 7 3.2 3.2 0.00 0.00 0.00 17 1011.6
20240222000838 13 340 3.2 3.2 0.00 0.00 0.00 16 1011.4
20240222000338 13 255 8.0 11.3 0.00 0.00 0.00 15 1011.6
20240221235837 15 6 1.6 1.6 0.00 0.00 0.00 15 1011.4
20240221235335 15 213 4.8 4.8 0.00 0.00 0.00 15 1011.2
20240221234834 15 239 8.0 11.3 0.00 0.00 0.00 15 1011.2
20240221234332 15 29 3.2 4.8 0.00 0.00 0.00 13 1011.0
20240221233832 16 9 0.0 1.6 0.00 0.00 0.00 13 1011.0
20240221233331 16 268 3.2 4.8 0.00 0.00 0.00 13 1011.0
20240221232828 17 334 1.6 1.6 0.00 0.00 0.00 13 1010.8
20240221232328 16 350 0.0 1.6 0.00 0.00 0.00 13 1010.8
20240221231826 15 0 1.6 1.6 0.00 0.00 0.00 14 1010.6
20240221231324 15 13 1.6 1.6 0.00 0.00 0.00 14 1010.6
20240221230740 15 323 1.6 3.2 0.00 0.00 0.00 16 1010.5
20240221230236 15 18 1.6 1.6 0.00 0.00 0.00 14 1010.4
20240221225734 16 263 6.4 9.7 0.00 0.00 0.00 13 1010.4
20240221225233 15 353 1.6 1.6 0.00 0.00 0.00 13 1010.3
20240221224731 15 336 8.0 11.3 0.00 0.00 0.00 14 1010.4
20240221224231 15 357 1.6 3.2 0.00 0.00 0.00 14 1010.3
20240221223731 16 238 4.8 9.7 0.00 0.00 0.00 14 1010.1
20240221223230 16 133 4.8 8.0 0.00 0.00 0.00 12 1010.0
20240221222729 16 216 4.8 4.8 0.00 0.00 0.00 14 1010.3
20240221222228 15 259 8.0 17.7 0.00 0.00 0.00 14 1010.1
20240221221726 15 321 6.4 8.0 0.00 0.00 0.00 15 1010.3
20240221221224 15 273 8.0 9.7 0.00 0.00 0.00 14 1010.1
20240221220724 15 250 4.8 8.0 0.00 0.00 0.00 14 1010.1
20240221220222 15 211 11.3 16.1 0.00 0.00 0.00 14 1010.0
20240221215720 16 196 8.0 9.7 0.00 0.00 0.00 13 1010.0
20240221215218 16 285 4.8 4.8 0.00 0.00 0.00 14 1009.9
20240221214717 16 267 12.9 16.1 0.00 0.00 0.00 13 1009.9
20240221214215 16 239 6.4 8.0 0.00 0.00 0.00 13 1009.7
20240221213713 16 255 11.3 12.9 0.00 0.00 0.00 13 1009.5
20240221213212 16 257 12.9 25.7 0.00 0.00 0.00 14 1009.5
20240221212711 16 270 11.3 16.1 0.00 0.00 0.00 14 1009.5
20240221212211 16 226 11.3 16.1 0.00 0.00 0.00 15 1009.3
20240221211710 16 190 6.4 9.7 0.00 0.00 0.00 15 1009.4
20240221211209 17 234 11.3 17.7 0.00 0.00 0.00 14 1009.2
20240221210708 17 217 17.7 20.9 0.00 0.00 0.00 13 1009.2
20240221210208 18 228 9.7 12.9 0.00 0.00 0.00 15 1009.2
20240221205707 18 316 6.4 8.0 0.00 0.00 0.00 14 1009.2
20240221205207 18 249 9.7 16.1 0.00 0.00 0.00 14 1009.2
20240221204706 18 243 9.7 12.9 0.00 0.00 0.00 14 1009.2
20240221204204 18 339 8.0 11.3 0.00 0.00 0.00 13 1009.1
20240221203704 18 244 8.0 9.7 0.00 0.00 0.00 13 1009.1
20240221203202 18 129 6.4 9.7 0.00 0.00 0.00 14 1009.2
20240221202701 18 223 9.7 12.9 0.00 0.00 0.00 14 1009.2
20240221202159 18 224 4.8 8.0 0.00 0.00 0.00 15 1009.3
20240221201659 18 202 6.4 9.7 0.00 0.00 0.00 14 1009.2
20240221201158 18 189 4.8 4.8 0.00 0.00 0.00 14 1009.3
20240221200658 18 178 4.8 8.0 0.00 0.00 0.00 14 1009.5
20240221200157 18 326 6.4 8.0 0.00 0.00 0.00 14 1009.5
20240221195657 18 209 6.4 9.7 0.00 0.00 0.00 14 1009.8
20240221195156 17 322 3.2 4.8 0.00 0.00 0.00 14 1009.7
20240221194655 18 129 11.3 17.7 0.00 0.00 0.00 13 1010.0
20240221194154 18 271 4.8 9.7 0.00 0.00 0.00 14 1009.9
20240221193654 18 311 3.2 8.0 0.00 0.00 0.00 15 1010.0
20240221193153 18 30 3.2 3.2 0.00 0.00 0.00 15 1010.1
20240221192652 18 301 3.2 4.8 0.00 0.00 0.00 14 1010.3
20240221192150 18 49 4.8 9.7 0.00 0.00 0.00 14 1010.5
20240221191648 17 36 3.2 4.8 0.00 0.00 0.00 13 1010.6
20240221191147 18 286 4.8 4.8 0.00 0.00 0.00 15 1010.7
20240221190647 18 201 8.0 9.7 0.00 0.00 0.00 13 1010.5
20240221190145 17 238 6.4 9.7 0.00 0.00 0.00 14 1010.8
20240221185644 18 286 4.8 4.8 0.00 0.00 0.00 14 1010.8
20240221185143 17 104 4.8 8.0 0.00 0.00 0.00 14 1011.0
20240221184639 17 206 11.3 17.7 0.00 0.00 0.00 14 1011.0
20240221184138 18 235 6.4 9.7 0.00 0.00 0.00 14 1011.3
20240221183637 17 198 8.0 12.9 0.00 0.00 0.00 15 1011.6
20240221183135 17 324 4.8 8.0 0.00 0.00 0.00 14 1011.4
20240221182635 17 218 6.4 9.7 0.00 0.00 0.00 15 1011.7
20240221182135 17 13 1.6 1.6 0.00 0.00 0.00 15 1011.9
20240221181632 17 348 3.2 3.2 0.00 0.00 0.00 16 1011.9
20240221181132 17 211 8.0 11.3 0.00 0.00 0.00 14 1012.1
20240221180631 17 217 4.8 8.0 0.00 0.00 0.00 15 1012.0
20240221180128 17 293 8.0 9.7 0.00 0.00 0.00 14 1012.4
20240221175627 17 238 8.0 11.3 0.00 0.00 0.00 15 1012.5
20240221175127 16 320 8.0 11.3 0.00 0.00 0.00 15 1012.5
20240221174624 16 260 17.7 22.5 0.00 0.00 0.00 13 1012.7
20240221174124 16 252 8.0 11.3 0.00 0.00 0.00 15 1012.7
20240221173623 16 308 3.2 4.8 0.00 0.00 0.00 15 1012.9
20240221173118 16 296 3.2 3.2 0.00 0.00 0.00 14 1013.0
20240221172616 16 250 8.0 12.9 0.00 0.00 0.00 15 1013.1
20240221172101 16 194 8.0 9.7 0.00 0.00 0.00 15 1013.2
20240221171559 16 331 4.8 8.0 0.00 0.00 0.00 15 1013.3
20240221171058 16 260 1.6 3.2 0.00 0.00 0.00 15 1013.3
20240221170557 16 217 6.4 8.0 0.00 0.00 0.00 14 1013.4
20240221170055 15 282 6.4 8.0 0.00 0.00 0.00 15 1013.7
20240221165553 16 276 11.3 12.9 0.00 0.00 0.00 14 1013.8
20240221165053 15 242 4.8 4.8 0.00 0.00 0.00 15 1013.7
20240221164552 15 295 4.8 8.0 0.00 0.00 0.00 15 1013.8
20240221164051 15 57 1.6 1.6 0.00 0.00 0.00 21 1014.0
20240221163551 15 15 0.0 1.6 0.00 0.00 0.00 21 1013.8
20240221163050 14 225 4.8 8.0 0.00 0.00 0.00 22 1014.0
20240221162549 13 52 3.2 3.2 0.00 0.00 0.00 24 1014.2
20240221162049 13 157 1.6 3.2 0.00 0.00 0.00 27 1014.0
20240221161547 13 153 6.4 9.7 0.00 0.00 0.00 27 1014.4
20240221161045 12 184 3.2 4.8 0.00 0.00 0.00 30 1014.3
20240221160544 11 38 1.6 1.6 0.00 0.00 0.00 32 1014.4
20240221160043 11 56 1.6 3.2 0.00 0.00 0.00 34 1014.4
20240221155542 11 155 4.8 4.8 0.00 0.00 0.00 33 1014.4
20240221155040 11 58 3.2 3.2 0.00 0.00 0.00 33 1014.7
20240221154540 11 135 4.8 4.8 0.00 0.00 0.00 33 1014.9
20240221154040 11 47 1.6 3.2 0.00 0.00 0.00 32 1014.6
20240221153538 10 27 0.0 0.0 0.00 0.00 0.00 35 1014.9
20240221153037 10 23 0.0 0.0 0.00 0.00 0.00 34 1015.0
20240221152535 10 35 1.6 1.6 0.00 0.00 0.00 38 1015.0
20240221152033 9 14 0.0 1.6 0.00 0.00 0.00 37 1015.2
20240221151529 8 30 0.0 0.0 0.00 0.00 0.00 43 1015.3
20240221151030 8 25 0.0 0.0 0.00 0.00 0.00 49 1015.1
20240221150453 7 26 0.0 0.0 0.00 0.00 0.00 51 1015.2
20240221145953 6 20 0.0 0.0 0.00 0.00 0.00 52 1015.1
20240221145452 5 13 0.0 0.0 0.00 0.00 0.00 55 1015.1
20240221144951 4 16 0.0 0.0 0.00 0.00 0.00 58 1015.1
20240221144449 3 15 0.0 0.0 0.00 0.00 0.00 60 1015.0
20240221143948 2 12 0.0 0.0 0.00 0.00 0.00 63 1015.1
20240221143448 2 12 0.0 0.0 0.00 0.00 0.00 66 1015.1
20240221142947 1 8 0.0 1.6 0.00 0.00 0.00 70 1015.0
20240221142447 0 6 1.6 1.6 0.00 0.00 0.00 73 1015.0
20240221141945 -1 7 1.6 1.6 0.00 0.00 0.00 76 1015.0
20240221141444 -1 4 0.0 1.6 0.00 0.00 0.00 76 1015.1
20240221140943 -1 28 1.6 1.6 0.00 0.00 0.00 76 1015.2
20240221140442 -1 12 0.0 0.0 0.00 0.00 0.00 77 1015.1
20240221135940 -1 21 0.0 0.0 0.00 0.00 0.00 77 1015.1
20240221135439 -1 357 0.0 1.6 0.00 0.00 0.00 76 1015.2
20240221134938 -1 8 0.0 0.0 0.00 0.00 0.00 75 1015.3
20240221134437 -1 0 0.0 0.0 0.00 0.00 0.00 76 1015.3
20240221133935 -1 7 0.0 0.0 0.00 0.00 0.00 77 1015.5
20240221133434 -1 9 0.0 0.0 0.00 0.00 0.00 77 1015.2
20240221132934 -1 9 0.0 0.0 0.00 0.00 0.00 79 1015.3
20240221132434 -1 340 1.6 1.6 0.00 0.00 0.00 80 1015.3
20240221131934 -1 352 1.6 1.6 0.00 0.00 0.00 81 1015.2
20240221131433 -1 305 1.6 3.2 0.00 0.00 0.00 79 1015.6
20240221130932 -1 7 0.0 1.6 0.00 0.00 0.00 79 1015.6
20240221130431 0 7 0.0 0.0 0.00 0.00 0.00 78 1015.7
20240221125929 0 15 0.0 0.0 0.00 0.00 0.00 78 1015.7
20240221125427 -1 3 0.0 0.0 0.00 0.00 0.00 79 1015.6
20240221124925 -1 18 0.0 0.0 0.00 0.00 0.00 80 1015.6
20240221124423 -1 11 0.0 0.0 0.00 0.00 0.00 79 1015.9
20240221123922 -1 8 0.0 0.0 0.00 0.00 0.00 80 1015.8
20240221123420 -1 10 0.0 0.0 0.00 0.00 0.00 80 1015.8
20240221122920 -1 23 0.0 0.0 0.00 0.00 0.00 79 1015.9
20240221122419 0 23 0.0 0.0 0.00 0.00 0.00 78 1015.9
20240221121918 0 27 0.0 1.6 0.00 0.00 0.00 77 1016.0
20240221121418 0 8 0.0 0.0 0.00 0.00 0.00 77 1015.9
20240221120917 0 43 1.6 1.6 0.00 0.00 0.00 77 1015.9
20240221120417 0 17 0.0 0.0 0.00 0.00 0.00 77 1016.2
20240221115916 0 11 0.0 0.0 0.00 0.00 0.00 77 1016.0
20240221115415 0 12 0.0 0.0 0.00 0.00 0.00 77 1016.2
20240221114915 0 13 0.0 0.0 0.00 0.00 0.00 77 1015.8
20240221114414 0 15 0.0 0.0 0.00 0.00 0.00 76 1016.3
20240221113913 0 358 1.6 1.6 0.00 0.00 0.00 77 1015.8
20240221113412 0 14 0.0 0.0 0.00 0.00 0.00 76 1016.3
20240221112911 0 10 0.0 0.0 0.00 0.00 0.00 77 1016.4
20240221112410 0 25 0.0 0.0 0.00 0.00 0.00 76 1016.4
20240221111909 0 15 0.0 0.0 0.00 0.00 0.00 77 1016.3
20240221111408 0 11 0.0 0.0 0.00 0.00 0.00 76 1016.3
20240221110908 0 12 0.0 0.0 0.00 0.00 0.00 76 1016.6
20240221110407 0 345 1.6 1.6 0.00 0.00 0.00 77 1016.6
20240221105907 0 9 0.0 0.0 0.00 0.00 0.00 78 1016.5
20240221105407 0 9 0.0 0.0 0.00 0.00 0.00 79 1016.8
20240221104906 0 10 0.0 0.0 0.00 0.00 0.00 77 1016.6
20240221104405 0 351 1.6 1.6 0.00 0.00 0.00 77 1016.6